Location: Newark
(13.6797°N, 8.5297°E)
Time: 04:44:24
(UTC+00:00)

Courier 1B Rocket - Pass Details

Date: 24 January 2020
Orbit: 920 x 1202 km, 28.2° (Epoch: 16 February)

Event Time Altitude Azimuth Distance (km) Brightness Sun altitude
Rises 06:07:33 0° 203° (SSW) 4,089 8.2 2.3°
Reaches altitude 10° 06:12:01 10° 181° (S) 3,122 7.9 3.3°
Maximum altitude 06:16:01 15° 150° (SSE) 2,758 8.3 4.2°
Drops below altitude 10° 06:19:58 10° 118° (ESE) 3,076 10.2 5.1°
Sets 06:24:16 0° 96° (E) 3,994 10.0 6.1°
